Hourly Data Report for June 18, 2012

All times are specified in Local Standard Time (LST). Add 1 hour to adjust for Daylight Saving Time where and when it is observed.

SAINT JOHN A
NEW BRUNSWICK

45°18'58.000" N
65°53'24.000" W
108.80 m
8104901
71609
YSJ

Download Data

Hourly Data (June 2012)
Hourly Data Report for June 18, 2012
Temp Definition
°C
Dew Point Temp Definition
°C
Rel Hum Definition
%
Wind Dir Definition
10's deg

Wind Spd Definition
km/h
Visibility Definition
km
Stn Press Definition
kPa
Hmdx Definition


Wind Chill Definition


Weather Definition


TIME
00:00 Legend Double Dagger 8.7 8.1 96 21 6 10.0 100.97     LegendNANA
01:00 Legend Double Dagger 7.5 7.1 97 21 7 10.0 100.97     LegendNANA
02:00 Legend Double Dagger 6.7 6.4 98 20 8 10.0 100.96     Clear
03:00 Legend Double Dagger 7.3 6.7 96 18 6 10.0 100.93     LegendNANA
04:00 Legend Double Dagger 3.3 2.6 95   0 10.0 100.92     LegendNANA
05:00 Legend Double Dagger 2.7 2.4 98   0 10.0 100.94     Fog
06:00 Legend Double Dagger 6.9 6.6 98   0 10.0 100.96     Fog
07:00 Legend Double Dagger 12.3 9.3 82 28 7 10.0 100.97     LegendNANA
08:00 Legend Double Dagger 14.5 8.1 65 20 15 10.0 100.96     Clear
09:00 Legend Double Dagger 16.0 8.8 62 21 11 10.0 100.93     LegendNANA
10:00 Legend Double Dagger 16.6 9.4 62 20 16 10.0 100.91     LegendNANA
11:00 Legend Double Dagger 17.1 10.3 64 20 14 10.0 100.92     Mainly Clear
12:00 Legend Double Dagger 17.5 10.5 63 20 17 10.0 100.93     LegendNANA
13:00 Legend Double Dagger 18.0 9.7 58 21 16 10.0 100.91     LegendNANA
14:00 Legend Double Dagger 18.3 8.7 53 26 17 10.0 100.89     Mainly Clear
15:00 Legend Double Dagger 18.9 8.9 52 22 14 10.0 100.86     LegendNANA
16:00 Legend Double Dagger 19.0 8.8 51 23 9 10.0 100.82     LegendNANA
17:00 Legend Double Dagger 19.4 9.4 52 21 17 10.0 100.79     Mainly Clear
18:00 Legend Double Dagger 17.1 8.6 57 22 13 10.0 100.79     LegendNANA
19:00 Legend Double Dagger 15.4 8.5 63 23 14 10.0 100.78     LegendNANA
20:00 Legend Double Dagger 13.4 8.3 71 21 15 10.0 100.77     Mainly Clear
21:00 Legend Double Dagger 10.7 8.3 85 21 9 10.0 100.80     LegendNANA
22:00 Legend Double Dagger 8.8 7.9 94 20 7 10.0 100.77     LegendNANA
23:00 Legend Double Dagger 7.5 6.8 95   0 10.0 100.80     Mainly Clear

Notes on Data Quality.

Legend

  • E = Estimated
  • M = Missing
  • NA = Not Available
  • ‡ = Partner data that is not subject to review by the National Climate Archives
Date modified: